EW7285 Vallentuna SE current weather conditions

sailwx.info

Wind from 231 at 6 knots gusting 13

Air temperature 20.0° C
Dewpoint 9.8° C

Last reported at 2020-Aug-03 17:00 UTC.
Time now 2020-Aug-03 18:00 UTC

Location: N 59°33' E 018°03'.
View on Google Maps.

See reports from other nearby stations

  
Tides and Currents Weather Stations Pressure Air Temp Water Temp Dewpoint Dewpoint Depression Visibility Wind Speed Wind Dir Waves Ship Positions
date/time (UTC)wind fromknots sea level pressurealtimeterstation pressurevisibilityair tempwater tempwave heightnotes
2020-Aug-03 17:00 231 6 gusting 13 20.0
2020-Aug-03 16:46 251 6 gusting 10 20.6
2020-Aug-03 16:30 246 5 gusting 10 20.6
2020-Aug-03 16:15 242 5 gusting 10 20.0
2020-Aug-03 15:45 193 7 gusting 13 20.6
2020-Aug-03 15:30 225 7 gusting 14 20.6
2020-Aug-03 15:15 214 6 gusting 11 20.0
2020-Aug-03 15:00 162 6 gusting 10 20.6
2020-Aug-03 14:45 188 6 gusting 15 20.0
2020-Aug-03 14:30 236 5 gusting 9 20.0
2020-Aug-03 14:15 201 6 gusting 14 19.4
2020-Aug-03 14:00 193 5 gusting 13 20.0
2020-Aug-03 13:45 229 6 gusting 15 20.0
2020-Aug-03 13:30 161 6 gusting 12 20.0
2020-Aug-03 13:15 219 6 gusting 13 18.9
2020-Aug-03 13:00 196 6 gusting 17 19.4
2020-Aug-03 12:46 252 8 gusting 15 18.9
2020-Aug-03 12:32 210 2 gusting 13 18.3
2020-Aug-03 12:16 243 8 gusting 15 18.3
2020-Aug-03 12:02 177 11 gusting 17 18.3
2020-Aug-03 11:46 238 6 gusting 13 17.8
2020-Aug-03 11:30 242 8 gusting 13 17.8
2020-Aug-03 11:16 219 8 gusting 18 17.8
2020-Aug-03 11:01 198 10 gusting 17 17.8
2020-Aug-03 10:46 252 9 gusting 13 17.2
2020-Aug-03 10:31 261 8 gusting 13 17.8
2020-Aug-03 10:15 229 10 gusting 17 16.7
2020-Aug-03 10:01 190 6 gusting 13 16.7
2020-Aug-03 09:46 224 8 gusting 14 16.1
2020-Aug-03 09:31 242 6 gusting 13 16.1
2020-Aug-03 09:15 198 8 gusting 17 16.1
2020-Aug-03 09:01 205 8 gusting 14 16.1
2020-Aug-03 08:46 200 6 gusting 13 16.1
2020-Aug-03 08:32 225 8 gusting 14 16.1
2020-Aug-03 08:16 199 9 gusting 14 15.6
2020-Aug-03 08:01 229 7 gusting 17 16.1
2020-Aug-03 07:46 183 11 gusting 18 16.1
2020-Aug-03 07:31 169 8 gusting 14 15.6
2020-Aug-03 07:16 185 7 gusting 13 15.0
2020-Aug-03 07:01 209 6 gusting 12 15.6
2020-Aug-03 06:46 248 8 gusting 15 15.0
2020-Aug-03 06:31 207 7 gusting 11 15.0
2020-Aug-03 06:15 233 6 gusting 13 15.0
2020-Aug-03 06:00 220 5 gusting 9 14.4
2020-Aug-03 05:46 226 6 gusting 12 14.4
2020-Aug-03 05:30 244 6 gusting 12 14.4
2020-Aug-03 05:15 217 6 gusting 10 14.4
2020-Aug-03 04:45 236 5 gusting 8 14.4
2020-Aug-03 04:31 244 3 gusting 13 14.4
2020-Aug-03 04:15 193 4 gusting 9 14.4
2020-Aug-03 04:00 227 6 gusting 11 14.4
2020-Aug-03 03:45 235 2 gusting 9 14.4
2020-Aug-03 03:30 188 3 gusting 6 14.4
2020-Aug-03 03:15 223 6 gusting 9 14.4
2020-Aug-03 03:00 213 3 gusting 6 14.4
2020-Aug-03 02:45 221 2 gusting 6 14.4
2020-Aug-03 02:30 197 1 gusting 6 14.4
2020-Aug-03 02:15 194 2 gusting 6 14.4
2020-Aug-03 02:00 215 3 gusting 6 14.4
2020-Aug-03 01:45 209 3 gusting 6 14.4
2020-Aug-03 01:32 219 2 gusting 8 14.4
2020-Aug-03 01:17 225 4 gusting 8 15.0
2020-Aug-03 01:01 231 5 gusting 8 15.0
2020-Aug-03 00:46 207 4 gusting 11 15.0
2020-Aug-03 00:31 241 5 gusting 8 15.6
2020-Aug-03 00:16 238 4 gusting 6 15.6
2020-Aug-03 00:01 207 2 gusting 4 15.6
2020-Aug-02 23:47 230 3 gusting 6 15.6
2020-Aug-02 23:32 216 3 gusting 6 16.1
2020-Aug-02 23:16 246 1 gusting 4 16.1
2020-Aug-02 23:01 254 2 gusting 6 16.1
2020-Aug-02 22:47 236 3 gusting 6 16.7
2020-Aug-02 22:30 219 5 gusting 7 16.7
2020-Aug-02 22:00 265 2 gusting 6 17.2
2020-Aug-02 21:45 215 3 gusting 10 17.2
2020-Aug-02 21:31 218 4 gusting 9 17.8
2020-Aug-02 21:15 194 1 gusting 6 17.8
2020-Aug-02 21:01 208 4 gusting 6 17.8
2020-Aug-02 20:46 178 3 gusting 6 17.2
2020-Aug-02 20:30 160 2 gusting 6 17.2
2020-Aug-02 20:15 150 3 gusting 5 17.2
2020-Aug-02 20:00 154 1 gusting 6 17.2
2020-Aug-02 19:45 150 3 gusting 6 17.2
2020-Aug-02 19:31 088 0 gusting 6 17.2
2020-Aug-02 19:15 106 0 gusting 6 17.8
2020-Aug-02 19:00 160 4 gusting 7 17.8
2020-Aug-02 18:45 157 6 gusting 9 17.8
2020-Aug-02 18:31 161 3 gusting 6 17.8
2020-Aug-02 18:15 139 1 gusting 6 17.8
2020-Aug-02 18:00 175 2 gusting 6 17.8
2020-Aug-02 17:45 142 4 gusting 8 17.8
2020-Aug-02 17:30 173 5 gusting 8 17.8
2020-Aug-02 17:15 171 6 gusting 12 17.8
2020-Aug-02 17:00 167 7 gusting 11 19.4
2020-Aug-02 16:45 185 6 gusting 8 20.0
2020-Aug-02 16:30 165 6 gusting 13 20.0
2020-Aug-02 16:15 160 6 gusting 11 20.6
2020-Aug-02 16:00 169 8 gusting 13 20.6
2020-Aug-02 15:45 186 8 gusting 17 21.1
2020-Aug-02 15:15 138 10 gusting 18 21.7
2020-Aug-02 15:00 182 10 gusting 16 21.7
2020-Aug-02 14:46 161 6 gusting 15 21.7
2020-Aug-02 14:32 138 11 gusting 17 22.8
2020-Aug-02 14:16 148 11 gusting 17 22.2
2020-Aug-02 14:01 142 6 gusting 15 22.2
2020-Aug-02 13:46 166 11 gusting 19 22.2
2020-Aug-02 13:31 133 8 gusting 15 22.8
2020-Aug-02 13:15 161 6 gusting 12 22.2
2020-Aug-02 12:45 153 7 gusting 12 22.8
2020-Aug-02 12:31 173 6 gusting 11 22.8
2020-Aug-02 12:16 163 7 gusting 11 22.8
2020-Aug-02 12:00 102 7 gusting 14 23.3
2020-Aug-02 11:46 163 8 gusting 13 23.3
2020-Aug-02 11:30 136 8 gusting 13 23.3
2020-Aug-02 11:15 169 7 gusting 14 23.3
2020-Aug-02 11:01 170 6 gusting 13 23.3
2020-Aug-02 10:46 164 3 gusting 8 23.3
2020-Aug-02 10:30 241 3 gusting 8 22.8
2020-Aug-02 10:15 203 6 gusting 10 22.8
2020-Aug-02 10:00 237 8 gusting 13 22.8
2020-Aug-02 09:45 191 7 gusting 12 22.2
2020-Aug-02 09:30 184 7 gusting 13 22.8
2020-Aug-02 09:15 152 5 gusting 12 21.1
2020-Aug-02 09:00 213 6 gusting 8 21.1
2020-Aug-02 08:45 169 8 gusting 11 21.1
2020-Aug-02 08:30 161 6 gusting 8 21.1
2020-Aug-02 08:15 216 6 gusting 9 21.1
2020-Aug-02 08:00 199 6 gusting 8 20.6
2020-Aug-02 07:46 166 3 gusting 9 20.6
2020-Aug-02 07:31 207 2 gusting 6 20.0
2020-Aug-02 07:17 221 3 gusting 6 19.4
2020-Aug-02 07:01 159 1 gusting 6 19.4
2020-Aug-02 06:46 153 3 gusting 6 18.9
2020-Aug-02 06:31 157 3 gusting 8 18.9
2020-Aug-02 06:16 147 5 gusting 7 18.3
2020-Aug-02 06:00 143 4 gusting 8 18.3
2020-Aug-02 05:46 155 4 gusting 10 17.8
2020-Aug-02 05:30 169 2 gusting 6 16.7
2020-Aug-02 05:16 150 0 gusting 5 16.7
2020-Aug-02 05:02 149 3 gusting 5 16.7
2020-Aug-02 04:45 152 0 gusting 2 16.7
2020-Aug-02 04:31 089 0 gusting 2 16.1
2020-Aug-02 04:16 157 1 gusting 4 16.1
2020-Aug-02 04:00 099 0 gusting 2 15.6
2020-Aug-02 03:45 086 1 gusting 3 15.0
2020-Aug-02 03:30 115 0 gusting 2 15.0
2020-Aug-02 03:15 096 14.4
2020-Aug-02 02:45 122 0 gusting 2 14.4
2020-Aug-02 02:31 119 15.0
2020-Aug-02 02:15 097 0 gusting 2 15.0
2020-Aug-02 02:00 105 0 gusting 2 15.0
2020-Aug-02 01:45 092 15.0
2020-Aug-02 01:00 079 15.0
2020-Aug-02 00:46 137 15.0
2020-Aug-02 00:31 108 0 gusting 2 15.0
2020-Aug-02 00:16 157 15.0
2020-Aug-02 00:01 157 15.0
2020-Aug-01 23:46 089 0 gusting 2 15.6
2020-Aug-01 23:31 153 15.6
2020-Aug-01 23:16 109 15.6
2020-Aug-01 23:02 105 0 gusting 2 15.6
2020-Aug-01 22:46 168 16.1
2020-Aug-01 22:31 126 1 gusting 5 16.1
2020-Aug-01 22:15 167 0 gusting 3 16.1
2020-Aug-01 22:01 169 0 gusting 3 16.1
2020-Aug-01 21:46 124 0 gusting 2 16.1
2020-Aug-01 21:31 115 0 gusting 4 16.1
2020-Aug-01 21:15 165 1 gusting 3 16.1
2020-Aug-01 21:00 076 16.7
2020-Aug-01 20:45 146 1 gusting 4 16.7
2020-Aug-01 20:31 092 0 gusting 2 16.7
2020-Aug-01 20:16 084 17.2
2020-Aug-01 20:01 128 17.8
2020-Aug-01 19:47 124 0 gusting 5 17.8
2020-Aug-01 19:30 128 0 gusting 3 18.3
2020-Aug-01 19:16 149 0 gusting 2 18.9
2020-Aug-01 19:00 137 18.9
2020-Aug-01 18:45 065 0 gusting 3 19.4
2020-Aug-01 18:31 157 1 gusting 6 20.0
2020-Aug-01 18:15 146 0 gusting 4 20.0
2020-Aug-01 18:01 153 3 gusting 6 20.0